EN

Hourly Weather Laibin

Today, 26 July, Monday

Time Temperature Precipitation Wind Pressure Humidity
00:00 +26°C° 1 mm 2 mps 756 mmHg 97%
01:00 +26°C° 1 mm 2 mps 756 mmHg 98%
02:00 +26°C° 0.3 mm 2 mps 756 mmHg 98%
03:00 +26°C° 0.3 mm 2 mps 756 mmHg 98%
04:00 +25°C° 0.3 mm 2 mps 756 mmHg 98%
05:00 +26°C° 0 mm 2 mps 756 mmHg 97%
06:00 +26°C° 0 mm 2 mps 756 mmHg 96%
07:00 +26°C° 0 mm 2 mps 757 mmHg 95%
08:00 +29°C° 0 mm 1 mps 757 mmHg 82%
09:00 +31°C° 0 mm 1 mps 757 mmHg 70%
10:00 +34°C° 0 mm 1 mps 757 mmHg 58%
11:00 +35°C° 0 mm 1 mps 756 mmHg 54%
12:00 +37°C° 0 mm 2 mps 756 mmHg 50%
13:00 +38°C° 0 mm 2 mps 755 mmHg 46%
14:00 +36°C° 0 mm 3 mps 754 mmHg 54%
15:00 +35°C° 0 mm 3 mps 754 mmHg 62%
16:00 +33°C° 0 mm 4 mps 754 mmHg 70%
17:00 +30°C° 0.3 mm 3 mps 754 mmHg 78%
18:00 +29°C° 0.3 mm 2 mps 755 mmHg 85%
19:00 +27°C° 0.3 mm 2 mps 755 mmHg 93%
20:00 +27°C° 0.3 mm 2 mps 756 mmHg 93%
21:00 +27°C° 0.3 mm 1 mps 756 mmHg 94%
22:00 +26°C° 0.3 mm 1 mps 757 mmHg 95%
23:00 +26°C° 0 mm 1 mps 756 mmHg 95%

Tomorrow, 27 July, Tuesday

Time Temperature Precipitation Wind Pressure Humidity
00:00 +26°C° 0 mm 1 mps 756 mmHg 96%
01:00 +26°C° 0 mm 1 mps 756 mmHg 96%
02:00 +26°C° 0 mm 2 mps 756 mmHg 96%
03:00 +26°C° 0 mm 2 mps 755 mmHg 97%
04:00 +26°C° 0 mm 2 mps 755 mmHg 97%
05:00 +26°C° 0 mm 2 mps 756 mmHg 96%
06:00 +26°C° 0 mm 2 mps 756 mmHg 94%
07:00 +27°C° 0 mm 2 mps 757 mmHg 93%
08:00 +29°C° 0 mm 2 mps 757 mmHg 82%
09:00 +31°C° 0 mm 2 mps 757 mmHg 71%
10:00 +35°C° 0 mm 2 mps 757 mmHg 60%
11:00 +35°C° 0 mm 2 mps 756 mmHg 57%
12:00 +36°C° 0 mm 3 mps 756 mmHg 54%
13:00 +37°C° 0 mm 3 mps 755 mmHg 50%
14:00 +36°C° 0 mm 3 mps 755 mmHg 56%
15:00 +35°C° 0 mm 3 mps 754 mmHg 61%
16:00 +34°C° 0 mm 4 mps 754 mmHg 66%
17:00 +31°C° 0.2 mm 3 mps 755 mmHg 75%
18:00 +29°C° 0.2 mm 3 mps 755 mmHg 84%
19:00 +27°C° 0.2 mm 3 mps 756 mmHg 93%
20:00 +27°C° 0.1 mm 3 mps 756 mmHg 94%
21:00 +27°C° 0.1 mm 2 mps 756 mmHg 95%
22:00 +26°C° 0.1 mm 2 mps 757 mmHg 97%
23:00 +26°C° 0 mm 2 mps 756 mmHg 97%

Day after tomorrow, 28 July, Wednesday

Time Temperature Precipitation Wind Pressure Humidity
00:00 +26°C° 0 mm 2 mps 756 mmHg 97%
01:00 +26°C° 0 mm 2 mps 756 mmHg 98%
02:00 +26°C° 0 mm 2 mps 756 mmHg 98%
03:00 +26°C° 0 mm 2 mps 755 mmHg 98%
04:00 +26°C° 0 mm 2 mps 755 mmHg 98%
05:00 +26°C° 0 mm 2 mps 756 mmHg 97%
06:00 +26°C° 0 mm 2 mps 756 mmHg 96%
07:00 +27°C° 0 mm 2 mps 757 mmHg 95%
08:00 +28°C° 0 mm 2 mps 757 mmHg 85%
09:00 +30°C° 0 mm 2 mps 757 mmHg 76%
10:00 +32°C° 0 mm 2 mps 757 mmHg 66%
11:00 +34°C° 0 mm 2 mps 756 mmHg 60%
12:00 +36°C° 0 mm 2 mps 755 mmHg 54%
13:00 +37°C° 0 mm 2 mps 755 mmHg 48%
14:00 +36°C° 0 mm 3 mps 754 mmHg 53%
15:00 +35°C° 0 mm 4 mps 754 mmHg 59%
16:00 +34°C° 0 mm 4 mps 754 mmHg 64%
17:00 +32°C° 0 mm 4 mps 754 mmHg 71%
18:00 +30°C° 0 mm 4 mps 755 mmHg 78%
19:00 +28°C° 0 mm 3 mps 755 mmHg 85%
20:00 +28°C° 0 mm 3 mps 756 mmHg 87%
21:00 +27°C° 0 mm 2 mps 756 mmHg 90%
22:00 +27°C° 0 mm 2 mps 757 mmHg 92%
23:00 +27°C° 0.1 mm 2 mps 756 mmHg 93%

29 July, Thursday

Time Temperature Precipitation Wind Pressure Humidity
00:00 +27°C° 0.1 mm 2 mps 756 mmHg 95%
01:00 +26°C° 0.1 mm 2 mps 755 mmHg 96%
02:00 +26°C° 0.1 mm 2 mps 755 mmHg 96%
03:00 +26°C° 0.1 mm 2 mps 755 mmHg 96%
04:00 +26°C° 0.1 mm 2 mps 755 mmHg 96%
05:00 +26°C° 0 mm 2 mps 756 mmHg 94%
06:00 +27°C° 0 mm 2 mps 756 mmHg 91%
07:00 +27°C° 0 mm 2 mps 757 mmHg 89%
08:00 +29°C° 0 mm 2 mps 757 mmHg 79%
09:00 +31°C° 0 mm 2 mps 757 mmHg 70%
10:00 +34°C° 0 mm 2 mps 757 mmHg 60%
11:00 +35°C° 0 mm 2 mps 756 mmHg 56%
12:00 +36°C° 0 mm 3 mps 755 mmHg 53%
13:00 +37°C° 0 mm 3 mps 754 mmHg 49%
14:00 +36°C° 0 mm 3 mps 754 mmHg 55%
15:00 +35°C° 0 mm 3 mps 754 mmHg 60%
16:00 +34°C° 0 mm 4 mps 754 mmHg 66%
17:00 +31°C° 0.1 mm 3 mps 754 mmHg 74%
18:00 +29°C° 0.1 mm 3 mps 755 mmHg 81%
19:00 +28°C° 0.1 mm 2 mps 755 mmHg 89%
20:00 +27°C° 0.4 mm 2 mps 756 mmHg 92%
21:00 +27°C° 0.4 mm 2 mps 756 mmHg 94%
22:00 +26°C° 0.4 mm 2 mps 757 mmHg 97%
23:00 +26°C° 0.6 mm 2 mps 756 mmHg 97%

30 July, Friday

Time Temperature Precipitation Wind Pressure Humidity
00:00 +26°C° 0.6 mm 2 mps 756 mmHg 97%
01:00 +26°C° 0.6 mm 2 mps 756 mmHg 98%
02:00 +26°C° 0.3 mm 1 mps 756 mmHg 98%
03:00 +26°C° 0.3 mm 1 mps 756 mmHg 98%
04:00 +26°C° 0.3 mm 1 mps 756 mmHg 98%
05:00 +26°C° 0.2 mm 1 mps 756 mmHg 97%
06:00 +27°C° 0.2 mm 1 mps 757 mmHg 96%
07:00 +27°C° 0.2 mm 1 mps 757 mmHg 95%
08:00 +29°C° 0 mm 2 mps 757 mmHg 84%
09:00 +31°C° 0 mm 2 mps 757 mmHg 73%
10:00 +34°C° 0 mm 2 mps 757 mmHg 62%
11:00 +34°C° 0.1 mm 2 mps 756 mmHg 63%
12:00 +34°C° 0.1 mm 3 mps 756 mmHg 63%
13:00 +34°C° 0.1 mm 3 mps 755 mmHg 64%
14:00 +33°C° 0.5 mm 3 mps 755 mmHg 70%
15:00 +31°C° 0.5 mm 3 mps 755 mmHg 76%
16:00 +31°C° 0.5 mm 3 mps 755 mmHg 82%
17:00 +29°C° 0.3 mm 3 mps 755 mmHg 85%
18:00 +28°C° 0.3 mm 2 mps 756 mmHg 89%
19:00 +27°C° 0.3 mm 2 mps 756 mmHg 93%
20:00 +27°C° 0 mm 2 mps 757 mmHg 94%
21:00 +27°C° 0 mm 2 mps 757 mmHg 94%
22:00 +26°C° 0 mm 2 mps 757 mmHg 95%
23:00 +26°C° 0 mm 2 mps 757 mmHg 95%

31 July, Saturday

Time Temperature Precipitation Wind Pressure Humidity
00:00 +26°C° 0 mm 2 mps 757 mmHg 95%
01:00 +26°C° 0 mm 2 mps 756 mmHg 95%
02:00 +26°C° 0 mm 2 mps 756 mmHg 96%
03:00 +26°C° 0 mm 2 mps 756 mmHg 97%
04:00 +26°C° 0 mm 2 mps 756 mmHg 97%
05:00 +26°C° 0 mm 2 mps 756 mmHg 96%
06:00 +27°C° 0 mm 2 mps 757 mmHg 94%
07:00 +27°C° 0 mm 2 mps 757 mmHg 93%
08:00 +29°C° 0 mm 2 mps 757 mmHg 82%
09:00 +31°C° 0 mm 2 mps 757 mmHg 72%
10:00 +34°C° 0 mm 2 mps 757 mmHg 61%
11:00 +35°C° 0 mm 2 mps 756 mmHg 58%
12:00 +36°C° 0 mm 3 mps 756 mmHg 54%
13:00 +37°C° 0 mm 3 mps 755 mmHg 50%
14:00 +35°C° 0.1 mm 3 mps 754 mmHg 58%
15:00 +34°C° 0.1 mm 3 mps 754 mmHg 66%
16:00 +31°C° 0.1 mm 3 mps 754 mmHg 73%
17:00 +30°C° 0.2 mm 3 mps 755 mmHg 79%
18:00 +29°C° 0.2 mm 3 mps 755 mmHg 85%
19:00 +27°C° 0.2 mm 3 mps 756 mmHg 91%
20:00 +27°C° 0.6 mm 3 mps 756 mmHg 93%
21:00 +27°C° 0.6 mm 2 mps 756 mmHg 95%
22:00 +26°C° 0.6 mm 2 mps 757 mmHg 96%
23:00 +26°C° 0.3 mm 2 mps 756 mmHg 97%
Show more